GFSFLT2_850_temp_111.txt.gz
Temp
21 20 19 18 17 16 16 16 16 15 14 13 15 13 14 15 13 13 15 12 13 14 14 13 13 12 12 12 12 12 13 13
20 19 19 18 17 17 16 15 15 14 14 14 14 14 13 14 12 12 15 14 13 13 13 12 12 13 12 11 11 12 13 13
20 19 18 18 17 17 16 16 14 13 13 13 14 14 14 13 12 13 12 14 14 13 12 12 12 12 12 12 12 12 13 13
20 18 18 17 17 16 16 16 14 13 13 12 13 14 13 12 13 14 12 14 13 12 12 11 11 13 11 11 12 12 12 12
20 18 17 17 16 16 15 15 14 13 13 12 12 13 13 12 13 13 12 13 12 12 11 12 12 13 12 13 12 12 12 12
19 18 16 16 15 15 15 15 14 13 12 12 12 12 12 13 13 14 12 13 12 12 11 12 12 12 12 12 12 12 12 12
19 17 16 15 15 15 15 14 13 13 12 12 12 11 11 12 13 14 12 13 12 12 12 12 11 11 11 12 12 12 11 12
19 18 16 15 15 14 14 13 13 13 12 11 11 11 11 12 11 13 12 13 12 12 11 11 11 11 12 12 12 11 11 11
19 18 16 15 14 14 13 13 13 12 12 11 11 11 11 11 12 13 12 13 13 12 11 11 11 11 12 12 11 11 11 11
19 17 15 14 14 13 12 13 13 12 11 11 11 11 11 10 12 13 12 13 13 12 11 11 11 12 12 11 11 11 11 11
18 16 15 15 13 12 12 12 12 12 11 10 10 11 11 11 12 13 12 12 12 12 12 11 11 12 11 11 11 11 11 11
17 16 15 14 13 12 12 12 12 12 10 10 10 11 11 11 12 12 12 12 12 12 12 11 12 12 11 11 11 11 10 10
17 16 15 14 13 12 12 12 12 11 11 11 10 10 10 11 12 12 12 13 13 12 12 12 11 11 11 10 10 10 10 10
16 16 15 14 13 12 12 12 12 11 11 11 11 11 11 11 12 12 12 12 12 12 12 11 11 11 11 10 9 9 9 10
17 17 16 14 12 12 11 11 11 11 11 11 11 11 11 11 12 12 11 12 12 12 12 12 11 11 11 11 10 10 10 10
17 17 16 14 12 11 12 12 11 11 11 11 11 11 11 11 11 12 12 12 12 12 12 12 12 11 10 11 11 11 10 10
17 17 16 14 12 11 11 11 11 11 11 11 11 10 11 11 11 11 11 12 12 12 11 11 11 12 11 10 11 11 11 11
16 16 16 13 11 11 11 12 11 11 11 11 11 11 11 11 11 11 11 12 12 12 11 11 11 11 11 11 11 11 11 11
15 16 15 12 11 10 11 11 10 11 10 10 11 11 11 11 10 11 11 11 11 11 11 11 11 11 11 10 10 11 11 10
15 16 15 11 10 10 9 10 10 10 9 10 10 10 10 11 11 10 10 11 11 10 10 11 10 10 10 10 9 9 9 9

GFSFLT2_850_temp_114.txt.gz
Temp
21 20 18 18 18 17 17 17 16 16 15 15 15 15 14 15 15 13 14 13 12 11 13 13 13 13 13 13 13 12 12 12
20 20 18 18 17 17 16 16 15 15 15 15 14 14 14 15 16 13 13 13 12 12 14 13 13 13 13 12 12 12 12 12
20 19 19 18 17 17 16 15 14 14 14 14 14 13 14 15 15 13 14 12 11 12 13 13 12 12 12 12 11 11 11 12
20 20 19 18 17 17 16 15 14 14 13 13 13 13 14 14 14 13 13 12 11 12 12 13 12 12 11 11 11 11 11 12
20 20 19 18 17 17 16 15 14 14 13 13 13 13 13 14 14 12 13 12 11 11 11 12 11 12 11 12 11 12 12 11
20 19 19 18 17 16 16 15 14 13 13 13 12 12 12 13 13 12 12 12 12 11 11 11 11 11 12 12 11 12 12 12
20 19 19 18 17 16 15 15 14 12 12 12 12 12 12 13 13 12 12 13 13 11 10 11 11 11 11 12 11 12 12 12
20 19 18 18 17 16 15 14 14 12 11 12 12 11 11 11 12 12 12 13 14 12 11 11 11 11 11 11 11 11 11 11
20 19 18 17 16 15 14 14 13 12 12 12 11 11 11 11 11 12 13 13 13 11 11 11 11 11 11 11 11 11 11 11
20 19 18 17 16 15 14 14 12 12 12 12 11 11 11 10 11 11 12 12 12 11 11 10 11 11 11 11 11 11 11 11
20 19 18 17 16 15 13 13 12 12 12 11 11 11 11 11 11 10 12 12 12 11 11 10 11 11 11 11 11 11 11 10
20 18 18 17 15 14 13 12 11 11 11 11 11 10 11 10 10 11 12 12 12 12 11 10 11 10 11 10 11 10 10 10
19 18 18 16 15 14 13 11 11 11 11 12 11 10 10 11 11 11 12 11 12 12 11 11 10 10 11 10 10 10 10 10
19 18 18 16 16 14 13 12 12 11 11 11 10 10 10 10 11 11 11 12 12 12 11 10 10 10 10 10 9 9 10 10
17 17 18 16 15 13 13 12 11 11 11 10 10 10 11 11 10 10 11 12 12 12 11 11 10 10 11 11 9 9 10 10
15 16 17 15 14 12 13 12 11 11 11 11 11 10 11 10 11 11 12 12 12 13 12 11 11 11 10 11 11 11 10 10
16 16 16 14 13 12 13 12 11 12 11 11 12 11 10 10 11 11 11 11 12 12 12 12 11 11 11 10 11 11 11 11
15 15 15 14 12 12 13 12 11 11 11 11 11 11 11 10 10 11 11 11 12 12 12 12 11 11 11 11 11 11 11 11
14 15 14 14 12 11 12 11 10 11 11 11 11 11 11 10 11 11 11 11 11 11 12 12 12 11 11 11 11 11 11 11
13 14 14 13 12 11 12 11 10 10 10 11 11 11 11 11 10 10 11 11 11 11 11 11 11 11 11 11 10 10 10 10

GFSFLT2_850_temp_117.txt.gz
Temp
20 20 20 20 19 18 16 16 16 16 16 16 15 16 15 17 14 15 13 13 14 13 13 13 12 12 12 12 12 12 12 11
20 20 19 19 19 19 17 16 15 15 15 15 15 15 15 15 14 14 14 16 13 13 12 13 12 12 12 12 12 12 12 12
20 19 19 19 18 18 18 16 15 15 14 14 14 14 14 14 14 14 14 16 14 13 12 12 11 12 12 12 12 12 12 12
20 19 19 18 18 18 17 17 15 14 14 14 14 14 14 14 14 13 15 15 14 13 11 11 11 12 11 11 11 12 12 12
21 20 19 18 18 18 17 17 15 14 14 13 13 13 13 13 13 12 14 14 14 13 11 11 11 12 11 12 12 11 11 11
20 19 19 19 18 17 17 16 13 13 13 13 13 13 13 13 13 13 13 13 13 12 12 11 11 12 12 11 11 11 11 10
20 19 18 18 17 17 16 16 15 13 13 13 13 12 12 13 12 13 13 12 12 12 12 11 11 11 11 11 11 12 12 10
20 19 18 18 18 17 16 16 15 13 13 13 12 12 12 12 12 12 12 12 12 12 13 10 11 11 11 11 11 11 11 10
20 20 18 18 17 17 16 15 15 14 13 12 12 12 12 11 12 11 11 12 12 11 12 10 10 11 11 11 11 11 10 10
20 20 20 17 17 17 16 15 15 14 13 13 11 11 11 11 11 11 11 12 12 12 12 10 10 11 11 11 11 11 10 10
21 20 20 18 16 17 16 15 14 13 13 13 12 11 11 11 11 11 11 12 11 12 12 11 10 11 10 11 10 11 10 10
20 20 19 18 16 16 15 14 14 13 12 12 12 11 11 10 11 11 11 11 11 12 11 10 11 11 10 10 10 10 9 10
20 20 18 17 16 16 15 15 14 13 12 12 11 11 10 11 11 11 11 10 11 11 11 11 10 10 10 10 10 10 9 10
17 18 17 16 16 16 16 16 14 12 12 11 11 11 10 10 11 11 11 10 10 11 11 10 10 10 10 8 8 8 9 9
16 16 15 15 15 15 15 14 13 12 11 11 11 11 10 10 10 11 11 10 10 11 11 10 10 10 11 10 9 10 8 9
16 15 14 15 15 15 15 16 12 11 11 11 11 10 11 10 10 10 11 10 11 11 12 11 12 11 10 11 11 11 10 9
15 14 14 14 15 15 15 15 12 11 11 11 10 10 10 10 10 11 10 10 11 11 11 10 11 11 10 10 11 11 12 11
14 13 13 13 14 15 15 15 12 12 11 11 10 10 10 10 10 10 10 10 11 11 12 12 11 11 11 11 11 11 12 12
12 13 12 13 13 13 14 14 12 12 12 11 11 10 10 10 10 10 10 10 11 11 11 12 12 11 11 11 11 11 12 12
11 11 11 12 13 12 12 12 11 11 11 11 10 11 11 11 11 11 10 10 11 11 11 11 11 11 11 11 11 11 11 11

GFSFLT2_850_temp_120.txt.gz
Temp
22 21 21 19 19 18 18 17 17 17 17 16 16 16 16 16 16 16 15 14 15 14 14 14 13 13 12 12 12 12 13 13
21 21 20 20 19 18 17 17 17 17 16 16 16 16 15 15 16 15 15 15 15 15 13 13 13 12 12 12 12 12 13 13
21 21 20 20 19 18 17 16 16 16 16 15 15 15 15 15 15 15 15 15 15 15 14 13 12 12 12 12 12 12 12 13
20 21 20 19 19 18 17 16 15 15 15 15 14 13 13 13 12 14 14 14 14 13 14 14 11 11 11 11 11 12 12 12
19 20 20 19 19 18 17 16 14 14 13 13 14 13 13 12 12 13 13 13 12 12 12 13 11 11 10 10 11 11 12 11
17 20 20 19 19 18 18 16 15 15 14 13 14 13 12 12 12 13 12 12 12 12 12 12 11 11 11 11 11 11 11 11
19 19 20 19 19 18 17 17 15 14 15 14 14 13 12 12 13 13 13 13 12 11 11 11 11 10 11 10 10 11 10 11
18 20 19 19 18 18 18 17 16 15 16 15 14 13 13 13 13 12 13 12 11 11 11 11 11 10 10 10 10 10 10 10
18 19 20 19 18 18 17 17 16 15 15 15 13 13 13 12 12 12 12 11 11 11 10 11 11 10 11 10 10 10 10 9
19 18 19 19 17 15 17 17 16 15 15 15 13 12 12 12 12 12 12 11 10 11 10 10 11 10 10 11 10 10 9 9
18 18 19 19 17 14 13 16 16 15 14 13 13 13 12 11 12 11 11 11 10 11 10 10 10 11 11 11 10 10 9 10
19 19 19 16 14 13 13 15 16 15 15 14 13 12 11 11 11 11 11 10 10 10 11 10 11 12 11 10 10 10 10 10
18 18 18 15 14 13 13 15 15 15 14 14 14 13 11 11 11 11 11 11 10 10 11 11 11 11 11 10 10 9 9 9
17 15 15 13 13 12 12 14 15 15 15 14 14 12 12 11 11 10 11 11 10 10 10 11 11 10 10 10 9 9 9 9
14 14 13 13 12 12 12 14 14 14 14 14 13 11 11 11 11 10 11 11 10 10 10 10 11 10 11 12 11 11 10 9
13 13 15 14 11 12 12 14 15 16 16 15 11 11 11 11 10 10 10 10 10 10 10 10 11 10 11 12 12 13 11 10
12 12 16 12 12 12 12 12 12 13 15 14 11 11 11 10 10 10 10 10 10 10 9 9 10 10 11 11 12 12 12 13
14 13 12 12 12 13 12 12 12 11 12 11 11 11 11 11 10 10 10 10 10 10 10 9 10 10 11 10 11 12 12 13
11 12 11 12 12 12 12 12 11 11 11 11 11 11 11 11 10 10 10 10 10 10 9 9 10 10 10 10 11 11 12 13
12 11 10 11 11 12 12 13 13 12 11 11 11 11 11 11 10 10 10 10 10 10 10 10 10 10 10 10 11 11 12 12

GFSFLT2_850_temp_123.txt.gz
Temp
23 22 21 21 21 20 19 18 18 18 17 17 16 16 16 16 16 16 15 15 16 15 14 14 14 14 13 13 13 14 15 15
21 22 21 21 21 20 19 18 18 17 17 16 16 16 15 15 16 15 15 15 15 14 14 14 13 13 13 13 13 14 15 15
20 21 21 21 20 20 19 18 17 17 16 16 16 15 14 15 15 15 15 15 15 14 14 14 13 13 12 12 13 13 14 15
18 19 21 20 20 20 19 18 17 17 16 15 15 15 14 13 13 13 14 14 14 14 13 13 13 13 11 12 13 14 14 14
18 17 19 19 18 19 19 16 16 15 14 14 15 14 14 14 13 13 13 13 13 12 13 12 12 11 11 11 12 13 14 13
19 17 16 17 15 18 19 16 15 14 14 15 15 15 14 13 14 13 12 12 13 13 13 13 12 12 12 12 12 13 14 13
20 18 16 16 15 18 19 16 16 15 15 14 15 14 14 13 14 13 13 12 12 13 13 12 12 13 12 12 12 13 13 12
20 18 17 17 16 18 18 18 15 16 15 14 15 14 14 13 13 13 13 12 12 12 13 12 12 12 12 12 12 13 12 12
20 19 17 16 17 18 17 18 16 15 15 14 14 15 14 13 13 13 13 13 12 12 11 12 12 11 11 11 12 12 11 12
21 21 19 17 16 17 17 17 16 15 14 14 15 15 14 14 13 13 13 12 11 11 11 11 12 12 11 12 12 12 11 11
20 20 19 18 16 15 15 17 15 15 14 14 16 14 14 13 13 14 12 12 11 11 11 11 12 12 11 11 12 12 11 11
18 18 18 18 17 15 15 14 15 14 14 14 13 14 14 13 13 12 12 12 11 11 11 11 12 12 11 11 12 12 11 11
18 18 17 17 17 16 15 14 14 13 14 13 13 13 13 13 12 12 12 11 12 11 10 11 12 12 11 11 11 11 11 11
17 17 17 16 16 16 15 13 13 13 13 13 13 13 12 12 12 12 11 11 11 10 10 10 11 12 11 11 10 10 10 10
16 17 17 16 16 15 13 13 13 13 13 13 15 14 13 11 12 11 11 11 11 11 10 10 10 11 11 11 10 11 10 10
15 16 16 15 14 14 13 12 12 12 13 13 14 14 12 11 12 11 11 11 11 11 11 10 10 10 10 11 12 12 11 10
13 14 15 14 12 14 12 12 12 13 12 12 14 13 11 11 12 11 11 11 10 10 10 10 10 10 11 11 12 13 12 12
14 12 12 12 12 12 12 12 13 13 13 12 11 12 12 12 11 11 10 10 10 10 10 10 9 10 11 11 12 13 12 13
14 15 12 12 12 12 12 12 13 14 12 11 12 12 12 12 12 11 11 10 10 10 10 10 9 10 11 11 13 13 13 14
12 14 14 11 11 12 12 12 13 13 13 12 12 12 12 12 12 12 12 11 10 10 10 10 9 10 11 11 12 12 13 13